This demonstration page uses our WeatherBlox Daily Observations layout. Learn more.

Left ArrowRight Arrow

39.01783, -85.05884

Hourly Observations for October 29, 2018

Temp ( °F °C ) Dew Point ( °F °C ) Humidity (%) Winds ( mph kmh ) Pressure ( in mb ) Visibility ( mi km ) Precip ( " mm )
12:52 am 00:52 Cloudy 49 9.4 44 6.7 83 83 WNW 16 26 29.93 1014 10 16 N/A
1:36 am 01:36 Cloudy 49 9.4 42 5.6 77 77 WNW 16 26 29.97 1015 10 16 N/A
1:52 am 01:52 Cloudy 49 9.4 42 5.6 77 77 WNW 15 24 29.96 1015 10 16 N/A
2:42 am 02:42 Cloudy 49 9.4 42 5.6 77 77 WNW 14 22 30.00 1016 10 16 N/A
2:52 am 02:52 Cloudy 49 9.4 42 5.6 77 77 WNW 12 19 29.98 1015 10 16 N/A
3:52 am 03:52 Cloudy 48 8.9 43 6.1 83 83 WNW 12 19 29.99 1016 10 16 N/A
4:29 am 04:29 Mostly Cloudy 46 7.8 42 5.6 86 86 W 9 15 30.03 1017 10 16 N/A
4:52 am 04:52 Clear 45 7.2 41 5 86 86 WSW 5 7 30.00 1016 10 16 N/A
5:37 am 05:37 Mostly Cloudy 45 7.2 42 5.6 90 90 W 6 9 30.06 1018 10 16 N/A
5:52 am 05:52 Cloudy 46 7.8 42 5.6 86 86 W 8 13 30.03 1017 10 16 N/A
6:30 am 06:30 Partly Cloudy 44 6.7 41 5 89 89 W 9 15 30.09 1019 10 16 N/A
6:52 am 06:52 Partly Cloudy 43 6.1 40 4.4 89 89 W 8 13 30.06 1018 10 16 N/A
7:52 am 07:52 Mostly Clear 42 5.6 40 4.4 92 92 WSW 6 9 30.07 1018 10 16 N/A
8:52 am 08:52 Mostly Sunny 42 5.6 40 4.4 92 92 WSW 3 6 30.09 1019 10 16 N/A
9:52 am 09:52 Partly Cloudy 46 7.8 42 5.6 86 86 W 12 19 30.11 1020 10 16 N/A
10:52 am 10:52 Partly Cloudy 49 9.4 42 5.6 77 77 W 12 19 30.13 1020 10 16 N/A
11:52 am 11:52 Mostly Sunny 52 11.1 43 6.1 72 72 WSW 8 13 30.12 1020 10 16 N/A
12:52 pm 12:52 Mostly Cloudy 55 12.8 41 5 59 59 WNW 14 22 30.12 1020 10 16 N/A
1:52 pm 13:52 Mostly Cloudy 57 13.9 38 3.3 49 49 WSW 13 20 30.09 1019 10 16 N/A
2:52 pm 14:52 Mostly Sunny 59 15 37 2.8 44 44 WNW 16 26 30.08 1019 10 16 N/A
3:52 pm 15:52 Mostly Sunny 60 15.6 37 2.8 42 42 NW 13 20 30.07 1018 10 16 N/A
4:52 pm 16:52 Mostly Sunny 59 15 35 1.7 41 41 WNW 13 20 30.07 1018 10 16 N/A
5:52 pm 17:52 Mostly Sunny 58 14.4 34 1.1 41 41 WNW 13 20 30.08 1019 10 16 N/A
6:52 pm 18:52 Mostly Clear 54 12.2 35 1.7 49 49 NW 6 9 30.09 1019 10 16 N/A
7:52 pm 19:52 Clear 46 7.8 38 3.3 73 73 S 3 6 30.09 1019 10 16 N/A
8:52 pm 20:52 Clear 44 6.7 37 2.8 76 76 S 3 6 30.10 1019 10 16 N/A
9:52 pm 21:52 Clear 42 5.6 37 2.8 82 82 S 3 6 30.10 1019 10 16 N/A
10:52 pm 22:52 Clear 42 5.6 36 2.2 79 79 N N/A 30.11 1020 10 16 N/A
11:52 pm 23:52 Mostly Clear 38 3.3 36 2.2 93 93 S 5 7 30.10 1019 10 16 N/A

Powered by AerisWeather